DW2363 Weather Reports


Display with metric or nautical units.
time (UTC)temp
F
wind
direction
speed
MPH
gust
MPH
rain 1hr
in
rain 24hr
in
rain mn
in
humidity
%
barometer
mb
20260507074356 60 109 6.0 8.0 0.00 0.00 0.00 76 1017.0
20260507073856 60 5 6.0 8.0 0.00 0.00 0.00 76 1017.1
20260507073355 60 65 7.0 8.0 0.00 0.00 0.00 76 1017.1
20260507072855 60 66 6.0 8.0 0.00 0.00 0.00 75 1017.1
20260507072359 60 106 5.0 7.0 0.00 0.00 0.00 74 1017.2
20260507072355 60 77 5.0 8.0 0.00 0.00 0.00 74 1017.1
20260507071359 60 106 5.0 7.0 0.00 0.00 0.00 75 1017.1
20260507071355 60 106 5.0 7.0 0.00 0.00 0.00 75 1017.1
20260507070356 60 106 6.0 7.0 0.00 0.00 0.00 74 1017.1
20260507065855 60 106 6.0 7.0 0.00 0.00 0.00 75 1017.1
20260507065355 60 106 5.0 7.0 0.00 0.00 0.00 75 1017.1
20260507064855 60 106 4.0 7.0 0.00 0.00 0.00 75 1017.1
20260507064357 60 106 1.0 4.0 0.00 0.00 0.00 75 1017.2
20260507064353 60 106 2.0 6.0 0.00 0.00 0.00 75 1017.2
20260507063353 60 106 2.0 6.0 0.00 0.00 0.00 74 1017.2
20260507062852 60 106 3.0 6.0 0.00 0.00 0.00 73 1017.2
20260507062351 61 106 4.0 6.0 0.00 0.00 0.00 74 1017.1
20260507061849 61 106 4.0 6.0 0.00 0.00 0.00 74 1017.0
20260507061350 61 106 4.0 6.0 0.00 0.00 0.00 74 1017.0
20260507060849 61 126 4.0 6.0 0.00 0.00 0.00 74 1017.0
20260507060347 61 126 4.0 6.0 0.00 0.00 0.00 73 1017.1
20260507055850 61 126 4.0 6.0 0.00 0.00 0.00 73 1017.1
20260507055845 61 126 3.0 6.0 0.00 0.00 0.00 72 1017.1
20260507055452 61 126 3.0 6.0 0.00 0.00 0.00 71 1017.1
20260507054345 61 126 3.0 6.0 0.00 0.00 0.00 71 1017.1
20260507053844 61 127 3.0 4.0 0.00 0.00 0.00 71 1017.1
20260507053343 61 127 3.0 4.0 0.00 0.00 0.00 71 1017.1
20260507052843 61 131 1.0 4.0 0.00 0.00 0.00 71 1017.1
20260507052343 61 132 0.0 2.0 0.00 0.00 0.00 71 1017.0
20260507051842 61 139 0.0 2.0 0.00 0.00 0.00 70 1017.0
20260507051343 61 132 0.0 2.0 0.00 0.00 0.00 70 1017.0
20260507050847 61 132 1.0 4.0 0.00 0.00 0.00 70 1017.1
20260507050843 61 132 1.0 4.0 0.00 0.00 0.00 71 1017.1
20260507045843 61 135 2.0 5.0 0.00 0.00 0.00 72 1017.0
20260507045343 62 149 2.0 5.0 0.00 0.00 0.00 74 1017.0
20260507044841 62 150 2.0 5.0 0.00 0.00 0.00 75 1017.0
20260507044341 62 151 2.0 5.0 0.00 0.00 0.00 75 1017.0
20260507043841 62 144 2.0 4.0 0.00 0.00 0.00 75 1017.0
20260507043341 62 141 2.0 4.0 0.00 0.00 0.00 75 1017.0
20260507042841 62 150 2.0 4.0 0.00 0.00 0.00 75 1017.0
20260507042341 62 158 3.0 5.0 0.00 0.00 0.00 75 1017.0
20260507041841 62 132 3.0 5.0 0.00 0.00 0.00 75 1016.9
20260507041342 62 132 3.0 4.0 0.00 0.00 0.00 75 1017.0
20260507040841 62 130 3.0 4.0 0.00 0.00 0.00 76 1016.9
20260507040344 61 130 1.0 3.0 0.00 0.00 0.00 76 1016.9
20260507040340 61 130 2.0 3.0 0.00 0.00 0.00 76 1016.9
20260507035340 61 149 0.0 2.0 0.00 0.00 0.00 75 1016.9
20260507034839 61 145 0.0 2.0 0.00 0.00 0.00 75 1016.7
20260507034339 61 144 0.0 3.0 0.00 0.00 0.00 75 1016.6
20260507033839 61 149 1.0 3.0 0.00 0.00 0.00 75 1016.6
20260507033339 60 147 1.0 3.0 0.00 0.00 0.00 76 1016.6
20260507032839 60 143 1.0 3.0 0.00 0.00 0.00 75 1016.6
20260507032339 60 143 2.0 4.0 0.00 0.00 0.00 73 1016.5
20260507031839 60 142 1.0 4.0 0.00 0.00 0.00 74 1016.4
20260507031338 60 131 0.0 2.0 0.00 0.00 0.00 75 1016.4
20260507030838 60 121 0.0 2.0 0.00 0.00 0.00 75 1016.4
20260507030339 60 115 0.0 2.0 0.00 0.00 0.00 75 1016.3
20260507025843 60 246 2.0 3.0 0.00 0.00 0.00 77 1016.3
20260507025839 60 317 1.0 3.0 0.00 0.00 0.00 76 1016.3
20260507024840 60 245 1.0 3.0 0.00 0.00 0.00 77 1016.2
20260507024836 60 222 1.0 3.0 0.00 0.00 0.00 73 1016.0
20260507023835 60 235 1.0 3.0 0.00 0.00 0.00 74 1016.0
20260507023335 60 220 3.0 5.0 0.00 0.00 0.00 70 1016.2
20260507022833 60 211 2.0 5.0 0.00 0.00 0.00 72 1016.0
20260507022337 60 201 3.0 7.0 0.00 0.00 0.00 70 1016.0
20260507022333 60 225 2.0 7.0 0.00 0.00 0.00 74 1015.9
20260507021334 60 204 5.0 7.0 0.00 0.00 0.00 71 1015.9
20260507021330 60 205 5.0 7.0 0.00 0.00 0.00 71 1015.8
20260507020331 60 213 5.0 7.0 0.00 0.00 0.00 70 1015.8
20260507015828 61 213 5.0 7.0 0.00 0.00 0.00 70 1015.8
20260507015328 61 213 5.0 6.0 0.00 0.00 0.00 72 1015.8
20260507014829 62 214 4.0 6.0 0.00 0.00 0.00 72 1015.8
20260507014329 63 207 4.0 6.0 0.00 0.00 0.00 76 1015.8
20260507013834 63 238 4.0 7.0 0.00 0.00 0.00 75 1015.8
20260507013829 63 221 4.0 6.0 0.00 0.00 0.00 76 1015.9
20260507013328 63 253 4.0 7.0 0.00 0.00 0.00 75 1015.8
20260507012329 63 258 3.0 9.0 0.00 0.00 0.00 75 1015.8
20260507011828 63 218 3.0 9.0 0.00 0.00 0.00 76 1015.8
20260507011329 63 285 3.0 8.0 0.00 0.00 0.00 76 1015.7
20260507010829 62 236 3.0 7.0 0.00 0.00 0.00 77 1015.7
20260507010329 62 242 3.0 7.0 0.00 0.00 0.00 77 1015.7
20260507005828 62 223 3.0 7.0 0.00 0.00 0.00 78 1015.7
20260507005328 62 193 3.0 5.0 0.00 0.00 0.00 79 1015.7
20260507004828 62 229 2.0 6.0 0.00 0.00 0.00 80 1015.6
20260507004328 61 248 2.0 6.0 0.00 0.00 0.00 81 1015.7
20260507003828 61 221 2.0 5.0 0.00 0.00 0.00 83 1015.7
20260507003334 60 226 3.0 8.0 0.00 0.00 0.00 84 1015.7
20260507003329 60 224 2.0 5.0 0.00 0.00 0.00 84 1015.7
20260507002328 60 225 3.0 8.0 0.00 0.00 0.00 84 1015.7
20260507001828 60 244 3.0 5.0 0.00 0.00 0.00 84 1015.6
20260507001327 60 228 3.0 7.0 0.00 0.00 0.00 83 1015.7
20260507000826 60 237 4.0 8.0 0.00 0.00 0.00 84 1015.7
20260507000328 60 284 4.0 8.0 0.00 0.00 0.00 84 1015.7
20260506235824 60 227 3.0 8.0 0.00 0.00 0.00 85 1015.7
20260506235324 60 254 3.0 8.0 0.00 0.00 0.00 86 1015.6
20260506234824 60 227 4.0 8.0 0.00 0.00 0.00 86 1015.6
20260506234325 60 216 4.0 8.0 0.00 0.00 0.00 86 1015.6
20260506233823 60 201 5.0 9.0 0.00 0.00 0.00 85 1015.6
20260506233323 60 175 5.0 9.0 0.00 0.00 0.00 85 1015.6
20260506232826 61 206 4.0 11.0 0.00 0.00 0.00 83 1015.6
20260506232822 60 186 5.0 9.0 0.00 0.00 0.00 84 1015.7
20260506231820 61 180 4.0 11.0 0.00 0.00 0.00 83 1015.6
20260506231320 60 205 5.0 10.0 0.00 0.00 0.00 83 1015.7
20260506230820 60 234 6.0 10.0 0.00 0.00 0.00 83 1015.8
20260506230320 60 215 7.0 10.0 0.00 0.00 0.00 83 1015.8
20260506225818 60 213 7.0 11.0 0.00 0.00 0.00 82 1015.8
20260506225322 60 187 7.0 12.0 0.00 0.00 0.00 81 1015.9
20260506225318 60 200 7.0 12.0 0.00 0.00 0.00 81 1015.7
20260506224319 60 168 7.0 12.0 0.00 0.00 0.00 81 1015.9
20260506223818 59 203 7.0 11.0 0.00 0.00 0.00 81 1016.0
20260506223318 59 178 8.0 13.0 0.00 0.00 0.00 80 1016.0
20260506222816 59 199 8.0 13.0 0.00 0.00 0.00 79 1016.2
20260506222316 60 187 8.0 13.0 0.00 0.00 0.00 78 1016.2
20260506221816 60 213 8.0 14.0 0.00 0.00 0.00 79 1016.3
20260506221316 60 210 8.0 14.0 0.00 0.00 0.00 78 1016.3
20260506220820 60 171 7.0 12.0 0.00 0.00 0.00 81 1016.5
20260506220816 60 198 7.0 14.0 0.00 0.00 0.00 79 1016.5
20260506215818 59 196 8.0 12.0 0.00 0.00 0.00 81 1016.6
20260506215814 59 184 8.0 12.0 0.00 0.00 0.00 81 1016.5
20260506214814 59 196 7.0 12.0 0.00 0.00 0.00 81 1016.6
20260506214314 59 194 6.0 12.0 0.00 0.00 0.00 82 1016.7
20260506213814 58 196 7.0 12.0 0.00 0.00 0.00 83 1016.7
20260506213314 58 187 8.0 13.0 0.00 0.00 0.00 83 1016.8
20260506212814 58 163 7.0 13.0 0.00 0.00 0.00 82 1016.9
20260506212318 59 184 8.0 13.0 0.00 0.00 0.00 81 1016.9
20260506212314 59 220 7.0 13.0 0.00 0.00 0.00 82 1016.8
20260506211313 58 210 8.0 14.0 0.00 0.00 0.00 82 1016.8
20260506210812 58 182 8.0 14.0 0.00 0.00 0.00 81 1016.8
20260506210316 58 161 6.0 13.0 0.00 0.00 0.00 80 1016.9
20260506210312 58 185 7.0 13.0 0.00 0.00 0.00 81 1016.9
20260506205312 59 171 7.0 14.0 0.00 0.00 0.00 80 1016.9
20260506204811 59 209 7.0 14.0 0.00 0.00 0.00 80 1017.0
20260506204311 59 196 6.0 12.0 0.00 0.00 0.00 79 1016.9
20260506203811 59 184 6.0 10.0 0.00 0.00 0.00 80 1017.0
20260506203315 59 185 6.0 11.0 0.00 0.00 0.00 80 1017.1
20260506203311 59 221 6.0 10.0 0.00 0.00 0.00 79 1017.1
20260506202311 59 237 7.0 11.0 0.00 0.00 0.00 80 1017.2
20260506201807 59 220 6.0 10.0 0.00 0.00 0.00 82 1017.2
20260506201308 58 184 6.0 12.0 0.00 0.00 0.00 83 1017.3
20260506200808 58 210 5.0 12.0 0.00 0.00 0.00 83 1017.3
20260506200307 58 194 6.0 12.0 0.00 0.00 0.00 83 1017.3
20260506195808 58 188 7.0 12.0 0.00 0.00 0.00 83 1017.4
20260506195306 58 190 6.0 12.0 0.00 0.00 0.00 82 1017.4
20260506194812 58 202 6.0 11.0 0.00 0.00 0.00 84 1017.4
20260506194807 58 196 6.0 10.0 0.00 0.00 0.00 83 1017.4
20260506193811 58 195 6.0 12.0 0.00 0.00 0.00 83 1017.5
20260506193805 57 194 6.0 11.0 0.00 0.00 0.00 84 1017.4
20260506192812 58 209 6.0 11.0 0.00 0.00 0.00 82 1017.5
20260506192806 57 186 6.0 12.0 0.00 0.00 0.00 83 1017.5
20260506191805 58 182 6.0 11.0 0.00 0.00 0.00 82 1017.5
20260506191306 58 191 5.0 11.0 0.00 0.00 0.00 82 1017.7
20260506190806 58 200 6.0 11.0 0.00 0.00 0.00 83 1017.8
20260506190305 58 192 5.0 10.0 0.00 0.00 0.00 81 1017.7
20260506185806 59 192 4.0 10.0 0.00 0.00 0.00 84 1017.9
20260506185307 57 205 5.0 10.0 0.00 0.00 0.00 84 1017.9
20260506184805 57 209 6.0 11.0 0.00 0.00 0.00 85 1017.8
20260506184312 57 206 6.0 10.0 0.00 0.00 0.00 85 1017.8
20260506184306 57 193 6.0 11.0 0.00 0.00 0.00 83 1017.8
20260506183305 57 217 6.0 10.0 0.00 0.00 0.00 84 1017.8
20260506182805 57 193 5.0 9.0 0.00 0.00 0.00 83 1017.8
20260506182307 57 197 4.0 9.0 0.00 0.00 0.00 82 1017.9
20260506181806 58 196 5.0 9.0 0.00 0.00 0.00 82 1017.9
20260506181306 58 200 4.0 8.0 0.00 0.00 0.00 83 1017.9
20260506180804 58 201 3.0 8.0 0.00 0.00 0.00 82 1017.9
20260506180304 58 146 4.0 8.0 0.00 0.00 0.00 82 1017.9
20260506175804 58 215 5.0 10.0 0.00 0.00 0.00 84 1018.0
20260506175306 58 139 5.0 10.0 0.00 0.00 0.00 84 1018.0
20260506174808 56 143 4.0 8.0 0.00 0.00 0.00 86 1017.9
20260506174804 57 135 4.0 8.0 0.00 0.00 0.00 86 1017.9
20260506173804 56 124 4.0 8.0 0.00 0.00 0.00 88 1017.7
20260506173303 56 191 5.0 9.0 0.00 0.00 0.00 88 1017.8
20260506172803 56 153 4.0 9.0 0.00 0.00 0.00 88 1017.7
20260506172301 56 173 4.0 8.0 0.00 0.00 0.00 88 1017.8
20260506171801 56 174 4.0 8.0 0.00 0.00 0.00 88 1017.8
20260506171301 56 150 3.0 8.0 0.00 0.00 0.00 88 1017.7
20260506170805 56 165 3.0 8.0 0.00 0.00 0.00 86 1017.7
20260506170801 56 138 4.0 8.0 0.00 0.00 0.00 87 1017.7
20260506165801 57 128 2.0 6.0 0.00 0.00 0.00 85 1017.7
20260506165305 57 118 1.0 5.0 0.00 0.00 0.00 86 1017.5
20260506164801 57 167 2.0 7.0 0.00 0.00 0.00 86 1017.5
20260506164301 57 175 2.0 7.0 0.00 0.00 0.00 87 1017.4
20260506163803 56 140 2.0 7.0 0.00 0.00 0.00 85 1017.5
20260506163759 56 134 3.0 7.0 0.00 0.00 0.00 87 1017.5
20260506163259 56 158 3.0 7.0 0.00 0.00 0.00 87 1017.4
20260506162259 56 185 2.0 6.0 0.00 0.00 0.00 84 1017.5
20260506161759 56 122 2.0 7.0 0.00 0.00 0.00 84 1017.5
20260506161259 57 120 3.0 7.0 0.00 0.00 0.00 82 1017.5
20260506160759 57 77 3.0 7.0 0.00 0.00 0.00 81 1017.4
20260506160257 57 142 3.0 7.0 0.00 0.00 0.00 81 1017.4
20260506155757 57 74 2.0 7.0 0.00 0.00 0.00 80 1017.4
20260506155257 57 142 2.0 7.0 0.00 0.00 0.00 80 1017.4
20260506154801 57 141 3.0 8.0 0.00 0.00 0.00 80 1017.4
20260506154757 57 130 2.0 7.0 0.00 0.00 0.00 80 1017.4
20260506154404 57 73 3.0 8.0 0.00 0.00 0.00 80 1017.4
20260506153301 56 96 1.0 6.0 0.00 0.00 0.00 80 1017.4
20260506153257 56 73 2.0 7.0 0.00 0.00 0.00 81 1017.4
20260506152904 56 133 1.0 5.0 0.00 0.00 0.00 80 1017.3
20260506151757 56 124 2.0 6.0 0.00 0.00 0.00 79 1017.3
20260506151255 56 122 3.0 6.0 0.00 0.00 0.00 79 1017.3
20260506150755 56 132 2.0 6.0 0.00 0.00 0.00 78 1017.3
20260506150304 57 126 0.0 6.0 0.00 0.00 0.00 75 1017.3
20260506145755 56 128 0.0 3.0 0.00 0.00 0.00 75 1017.3
20260506145256 56 124 0.0 3.0 0.00 0.00 0.00 73 1017.3
20260506144759 56 163 1.0 4.0 0.00 0.00 0.00 74 1017.3
20260506144755 56 164 0.0 3.0 0.00 0.00 0.00 73 1017.4
20260506143754 56 135 0.0 4.0 0.00 0.00 0.00 74 1017.3
20260506143255 56 162 0.0 2.0 0.00 0.00 0.00 72 1017.3
20260506142755 55 162 0.0 0.0 0.00 0.00 0.00 74 1017.4
20260506142255 55 162 0.0 0.0 0.00 0.00 0.00 74 1017.3
20260506141755 54 162 0.0 0.0 0.00 0.00 0.00 75 1017.2
20260506141254 54 162 0.0 0.0 0.00 0.00 0.00 76 1017.2
20260506140755 53 162 0.0 1.0 0.00 0.00 0.00 77 1017.2
20260506140254 53 162 0.0 1.0 0.00 0.00 0.00 77 1017.1
20260506135755 53 162 0.0 0.0 0.00 0.00 0.00 78 1017.1
20260506135255 53 162 0.0 0.0 0.00 0.00 0.00 78 1017.1
20260506134759 53 162 0.0 0.0 0.00 0.00 0.00 76 1017.0
20260506134755 53 162 0.0 0.0 0.00 0.00 0.00 77 1017.0
20260506133753 53 162 0.0 0.0 0.00 0.00 0.00 76 1017.0
20260506133256 53 162 0.0 1.0 0.00 0.00 0.00 77 1017.0
20260506133252 53 162 0.0 1.0 0.00 0.00 0.00 76 1017.0
20260506132252 53 162 0.0 1.0 0.00 0.00 0.00 77 1016.9
20260506131758 52 162 1.0 4.0 0.00 0.00 0.00 78 1016.9
20260506131753 53 162 0.0 3.0 0.00 0.00 0.00 78 1017.0
20260506131401 52 157 1.0 4.0 0.00 0.00 0.00 78 1016.8
20260506130252 53 162 1.0 3.0 0.00 0.00 0.00 78 1016.8
20260506125751 53 158 1.0 3.0 0.00 0.00 0.00 78 1016.7
20260506125251 53 144 1.0 3.0 0.00 0.00 0.00 77 1016.7
20260506124751 52 140 0.0 2.0 0.00 0.00 0.00 78 1016.7
20260506124251 52 142 0.0 2.0 0.00 0.00 0.00 78 1016.7
20260506123751 53 142 0.0 2.0 0.00 0.00 0.00 78 1016.6
20260506123251 53 142 1.0 4.0 0.00 0.00 0.00 78 1016.6
20260506122752 53 141 2.0 4.0 0.00 0.00 0.00 77 1016.5
20260506122256 53 134 2.0 4.0 0.00 0.00 0.00 77 1016.4
20260506122252 53 135 3.0 4.0 0.00 0.00 0.00 77 1016.4
20260506121858 53 130 1.0 2.0 0.00 0.00 0.00 77 1016.4
20260506121326 53 130 1.0 2.0 0.00 0.00 0.00 77 1016.4
20260506121252 53 134 1.0 4.0 0.00 0.00 0.00 77 1016.4
20260506120251 53 138 0.0 5.0 0.00 0.00 0.00 77 1016.5
20260506115751 53 146 1.0 5.0 0.00 0.00 0.00 77 1016.4
20260506115255 53 155 3.0 5.0 0.00 0.00 0.00 77 1016.3
20260506115251 53 156 2.0 5.0 0.00 0.00 0.00 77 1016.4
20260506114859 53 153 3.0 5.0 0.00 0.00 0.00 77 1016.3
20260506113751 53 147 4.0 5.0 0.00 0.00 0.00 77 1016.3
20260506113251 53 136 3.0 4.0 0.00 0.00 0.00 77 1016.3
20260506112751 53 134 3.0 4.0 0.00 0.00 0.00 77 1016.3
20260506112251 53 136 3.0 4.0 0.00 0.00 0.00 77 1016.3
20260506111755 53 142 2.0 3.0 0.00 0.00 0.00 77 1016.2
20260506111751 53 146 2.0 4.0 0.00 0.00 0.00 77 1016.2
20260506110751 53 137 2.0 3.0 0.00 0.00 0.00 78 1016.2
20260506110248 53 137 3.0 5.0 0.00 0.00 0.00 77 1016.2
20260506105748 53 137 4.0 5.0 0.00 0.00 0.00 77 1016.3
20260506105248 53 138 4.0 5.0 0.00 0.00 0.00 76 1016.3
20260506104747 53 141 3.0 5.0 0.00 0.00 0.00 77 1016.3
20260506104247 53 131 2.0 4.0 0.00 0.00 0.00 78 1016.3
20260506103745 53 129 1.0 3.0 0.00 0.00 0.00 80 1016.3
20260506103244 52 85 0.0 1.0 0.00 0.00 0.00 80 1016.3
20260506102744 52 85 0.0 2.0 0.00 0.00 0.00 80 1016.3
20260506102244 52 85 0.0 2.0 0.00 0.00 0.00 81 1016.3
20260506101744 52 85 0.0 2.0 0.00 0.00 0.00 82 1016.3
20260506101244 52 85 0.0 2.0 0.00 0.00 0.00 82 1016.3
20260506100744 52 85 1.0 3.0 0.00 0.00 0.00 83 1016.3
20260506100244 52 85 1.0 3.0 0.00 0.00 0.00 83 1016.3
20260506095744 52 85 1.0 3.0 0.00 0.00 0.00 83 1016.3
20260506095247 52 109 1.0 2.0 0.00 0.00 0.00 83 1016.4
20260506095242 52 143 1.0 2.0 0.00 0.00 0.00 82 1016.4
20260506094242 52 109 0.0 2.0 0.00 0.00 0.00 82 1016.4
20260506093746 52 109 0.0 2.0 0.00 0.00 0.00 82 1016.5
20260506093742 52 109 0.0 2.0 0.00 0.00 0.00 82 1016.5
20260506092742 52 109 1.0 3.0 0.00 0.00 0.00 81 1016.4
20260506092242 53 109 2.0 4.0 0.00 0.00 0.00 82 1016.4
20260506091742 53 109 1.0 4.0 0.00 0.00 0.00 81 1016.4
20260506091242 53 109 1.0 3.0 0.00 0.00 0.00 81 1016.4
20260506090742 53 109 1.0 3.0 0.00 0.00 0.00 81 1016.5
20260506090240 53 109 1.0 3.0 0.00 0.00 0.00 80 1016.5
20260506085740 53 109 1.0 3.0 0.00 0.00 0.00 80 1016.6
20260506085240 53 109 1.0 3.0 0.00 0.00 0.00 80 1016.6
20260506084740 53 109 0.0 2.0 0.00 0.00 0.00 80 1016.7
20260506084240 53 109 1.0 4.0 0.00 0.00 0.00 80 1016.7
20260506083740 53 109 2.0 4.0 0.00 0.00 0.00 80 1016.8
20260506083244 52 111 2.0 4.0 0.00 0.00 0.00 81 1016.8
20260506083240 53 109 2.0 4.0 0.00 0.00 0.00 80 1016.7
20260506082847 52 111 1.0 4.0 0.00 0.00 0.00 81 1016.8
20260506081741 52 127 1.0 4.0 0.00 0.00 0.00 81 1016.8
20260506081238 52 146 0.0 0.0 0.00 0.00 0.00 82 1016.8
20260506080742 52 146 0.0 0.0 0.00 0.00 0.00 82 1016.8
20260506080738 52 146 0.0 0.0 0.00 0.00 0.00 82 1016.8
20260506080345 52 146 0.0 0.0 0.00 0.00 0.00 82 1016.9